Regional Weather Roundup
Issued by NWS

Home | Current Version | Previous Version | Text Only | Print | Product List | Glossary On
Versions: 1 2 3 4 5 6 7 8 9 10 11 12 13 14 15 16 17 18 19 20 21 22 23 24 25 26 27 28 29 30 31 32 33 34 35 36 37 38 39 40 41 42 43 44 45 46 47 48 49 50
000
ASUS45 KCYS 250410
RWRWY

WYOMING REGIONAL WEATHER ROUNDUP
NATIONAL WEATHER SERVICE CHEYENNE WY
900 PM MST SAT FEB 24 2018

NOTE:  "FAIR" INDICATES FEW OR NO CLOUDS BELOW 12,000 FEET
WITH NO SIGNIFICANT WEATHER AND/OR OBSTRUCTIONS TO VISIBILITY.

WYZ001-250500-
YELLOWSTONE NATIONAL PARK

CITY           SKY/WX    TMP DP  RH WIND       PRES   REMARKS
LK YELLOWSTONE   N/A      1  -3  83 CALM      29.72R
W YELLOWSTONE  NOT AVBL

$$
WYZ002>013-054>058-071-098>099-250500-
NORTHERN WYOMING

CITY           SKY/WX    TMP DP  RH WIND       PRES   REMARKS
JACKSON        LGT SNOW  15  12  88 SW9       29.80R FOG     WCI   3
CODY           FAIR      24   6  46 VRB7G22   29.72S WCI  16
GREYBULL       CLOUDY    12   5  73 E3        29.78R
WORLAND        FAIR      13   3  64 VRB5      29.76R WCI   5
SHERIDAN       MOCLDY     8  -3  61 CALM      29.71R
BUFFALO        FAIR      14  -4  44 W7        29.68S WCI   4
GILLETTE       FAIR      18   3  52 SW15      29.70R WCI   4
HULETT         FAIR      21   5  49 MISG      29.69R
NEWCASTLE      FAIR      10   3  72 N3        29.74R

$$
WYZ014>020-022>026-101>103-250500-
CENTRAL WYOMING

CITY           SKY/WX    TMP DP  RH WIND       PRES   REMARKS
BIG PINEY      FAIR       6   0  76 NW7       29.81R WCI  -6
PINEDALE       CLOUDY    12   5  73 W5        29.81R WCI   4
DUBOIS           N/A    N/A N/A N/A MISG        N/A
LANDER         FAIR      23   0  36 NE5       29.73S WCI  17
RIVERTON       FAIR      18   1  47 NW14      29.74S WCI   4
CASPER         FAIR      19  10  68 SW22      29.76R WCI   2
DOUGLAS        FAIR      18   7  62 MISG      29.75S

$$
WYZ021-027>030-104>119-250500-
SOUTHERN WYOMING

CITY           SKY/WX    TMP DP  RH WIND       PRES   REMARKS
EVANSTON       FAIR      12   9  87 SW17      29.84S WCI  -5
FORT BRIDGER   MOCLDY    15   9  76 W14       29.86  WCI   0
ROCK SPRINGS   LGT SNOW  15  11  83 S9        29.84S FOG     WCI   3
DIXON          LGT SNOW  17  13  84 SW12      29.91R WCI   4
RAWLINS        CLOUDY    15  10  80 W20G30    29.81R WCI  -2
SARATOGA       FAIR      16   9  73 SW10G16   29.82R WCI   3
LARAMIE        MOCLDY    15   2  56 W24       29.75S WCI  -4
CHEYENNE       FAIR      21   1  41 W10       29.78R WCI  10
TORRINGTON     FAIR      26  12  55 W18G25    29.79R WCI  13
PINE BLUFFS    FAIR      18   5  57 W3        29.80R

$$



USA.gov is the U.S. government's official web portal to all federal, state and local government web resources and services.